sat.trackr.live / text

‹ back to catalog

STARLINK-2512

NORAD 48319 · 2021-036AV

PAYLOAD ACTIVE UNKNOWN

§ Identity

Operator
Country
US
Launch date
2021-04-29
Launch site
AFETR
Launch vehicle
Mass (kg)
RCS (m²)

Purposes: comms

External: N2YO · Heavens-Above · Gunter

§ Orbital elements

Epoch: 2026-09-14T12:56:09.151584Z

Period
94.01 min
Inclination
53.1574°
Eccentricity
0.0000936
Mean motion
15.31705527 rev/d
Perigee alt
470.1 km
Apogee alt
471.4 km
Semi-major
6,848.9 km
B*
2.8679e-5
RAAN
302.2742°
Arg perigee
86.7815°
Mean anomaly
273.3293°
Rev number
29,697

§ Raw data

STARLINK-25121 48319U 21036AV  26257.53899481  .00000525  00000+0  28679-4 0  99932 48319  53.1574 302.2742 0000936  86.7815 273.3293 15.31705527296973

JSON: /api/v1/satellites/48319 · /tle

For live sub-satellite position, see the globe view (requires WebGL).

§ Visibility from observer

Set your observer location to see the next 7 days of passes ≥ 10°. The values pass through the URL so the page stays shareable.

No JS? Fill the form by hand. The geolocation button needs JavaScript.